#timestamp,LO_Frequency,Hit,StdDev 
1558594815.4,286047000.8,N
1558594835.2,286047000.6,N
1558594855.1,286046999.1,N
1558594856.0,286046999.1,N
1558594875.8,286046999.4,N
1558594895.7,286046998.3,N
1558594915.5,286047001.6,N
1558594935.3,286047001.5,N
1558594955.2,286047002.9,N
1558594975.0,286047005.9,Y
1558594975.9,286047005.9,P
1558594995.8,286047004.3,N
1558595015.6,286047004.4,N
1558595035.4,286047003.5,N
1558595055.3,286047003.0,N
1558595075.1,286047005.1,N
1558595095.8,286047004.6,N
1558595115.7,286047005.8,Y
1558595135.5,286047000.4,P
1558595155.4,286047002.8,N
1558595175.2,286047004.2,N
1558595195.0,286047001.9,N
1558595195.9,286047001.9,N
1558595215.8,286047003.8,N
1558595235.8,286047001.5,N
1558595255.6,286047001.6,N
1558595275.4,286047002.4,N
1558595295.3,286047002.4,N
1558595315.1,286047000.1,N
1558595335.8,286046998.1,N
1558595355.7,286047002.5,N
1558595375.5,286046999.7,N
1558595395.3,286047001.1,N
1558595415.2,286047001.1,N
1558595435.0,286047000.3,N
1558595435.9,286047000.3,N
1558595455.8,286047001.0,N
1558595475.6,286047000.1,N
1558595495.4,286047002.1,N
1558595515.3,286047006.0,Y
1558595535.1,286047000.3,P
1558595555.9,286047000.4,N
1558595575.7,286047001.2,N
1558595595.5,286046996.6,Y
1558595615.4,286046997.9,P
1558595635.2,286046997.5,N
1558595655.0,286046997.3,N
1558595655.9,286046997.3,N
1558595675.8,286046997.7,N
1558595695.6,286046998.7,N
1558595715.5,286047002.2,N
1558595735.3,286047001.3,N
1558595755.1,286047002.0,N
1558595775.9,286047002.1,N
1558595795.7,286047001.3,N
1558595815.5,286047004.2,N
1558595835.4,286047002.0,N
1558595855.2,286047003.8,N
1558595875.1,286047003.3,N
1558595895.5,286047001.8,N
1558595915.3,286046999.9,N
1558595935.2,286047001.1,N
1558595955.9,286046999.4,N
1558595975.7,286046999.6,N
1558595995.6,286046998.9,N
1558596015.4,286047000.8,N
1558596035.2,286047002.3,N
1558596055.1,286047000.1,N
1558596056.0,286047000.1,N
1558596075.8,286046999.3,N
1558596095.7,286046999.2,N
1558596115.5,286046999.6,N
1558596135.3,286047000.6,N
1558596155.1,286046996.5,N
1558596175.9,286046997.0,N
1558596195.7,286046996.6,N
1558596215.5,286046997.7,N
1558596235.4,286046998.8,N
1558596255.2,286047002.5,N
1558596275.1,286047000.0,N
1558596276.0,286047000.0,N
1558596295.8,286047000.0,N
1558596315.6,286047002.0,N
1558596335.5,286047001.6,N
1558596355.3,286047001.3,N
1558596375.1,286047004.3,N
1558596395.9,286047004.8,N
1558596415.7,286047003.3,N
1558596435.6,286047005.6,N
1558596455.4,286047003.7,N
1558596475.2,286047002.8,N
1558596495.1,286047002.6,N
1558596496.0,286047002.6,N
1558596515.8,286047001.5,N
1558596535.6,286047001.9,N
1558596555.5,286047000.6,N
1558596575.3,286047000.2,N
1558596595.2,286046998.4,N
1558596615.9,286046998.7,N
1558596635.7,286046997.7,N
1558596655.6,286046997.2,N
1558596675.4,286046996.8,N
1558596695.2,286046994.9,N
1558596715.1,286046997.3,N
1558596716.0,286046997.3,N
1558596735.8,286046998.1,N
1558596755.7,286046996.5,N
1558596775.5,286046997.1,N
1558596795.3,286046998.3,N
1558596815.2,286046997.1,N
1558596835.0,286046998.0,N
1558596835.9,286046998.0,N
1558596855.7,286046997.5,N
1558596875.6,286046998.5,N
1558596895.4,286046998.3,N
1558596915.3,286047002.5,N
1558596935.1,286047002.5,N
1558596955.8,286047002.2,N
1558596975.7,286047001.5,N
1558596995.5,286047000.1,N
1558597015.4,286047004.4,N
1558597035.2,286047004.1,N
1558597055.0,286047001.3,N
1558597055.9,286047001.3,N
1558597075.8,286047004.0,N
1558597095.6,286047003.7,N
1558597115.4,286047002.1,N
1558597135.3,286047004.1,N
1558597155.1,286046999.7,N
1558597175.9,286047000.1,N
1558597195.7,286047000.8,N
1558597215.5,286046998.7,N
1558597235.4,286046997.4,N
1558597255.2,286046996.9,N
1558597275.0,286046996.7,N
1558597276.0,286046996.7,N
1558597295.8,286046998.3,N
1558597315.6,286047000.5,N
1558597335.5,286046999.9,N
1558597355.3,286047000.5,N
1558597375.1,286046999.7,N
1558597395.9,286047001.8,N
1558597415.7,286047002.4,N
1558597435.5,286047002.3,N
1558597455.4,286047002.8,N
1558597475.2,286046999.9,N
1558597495.1,286047001.9,N
1558597496.0,286047001.9,N
1558597515.8,286047002.1,N
1558597535.6,286047002.8,N
1558597555.5,286047001.6,N
1558597575.3,286047000.2,N
1558597595.2,286047002.6,N
1558597615.9,286047002.3,N
1558597635.7,286047000.5,N
1558597655.6,286046998.4,N
1558597675.4,286047000.5,N
1558597695.3,286047000.1,N
1558597715.1,286046999.0,N
1558597716.0,286046999.0,N
1558597735.8,286047000.0,N
1558597755.7,286046999.8,N
1558597775.5,286047002.7,N
1558597795.3,286047001.8,N
1558597815.2,286047002.2,N
1558597835.0,286047004.4,N
1558597835.9,286047004.4,N
1558597855.8,286047002.3,N
1558597875.6,286047003.9,N
1558597895.4,286047005.8,Y
1558597915.3,286047002.4,P
1558597935.1,286046999.8,N
1558597955.8,286047000.2,N
1558597975.7,286047000.7,N
1558597995.5,286047000.1,N
1558598015.4,286047000.3,N
1558598035.2,286047001.6,N
1558598055.0,286047002.0,N
1558598055.9,286047002.0,N
1558598075.8,286047000.4,N
1558598095.6,286047000.7,N
1558598115.4,286046999.2,N
1558598135.3,286046996.7,Y
1558598155.1,286046998.4,P
1558598175.9,286046996.5,N
1558598195.7,286046995.8,N
1558598215.5,286046993.8,Y
1558598235.4,286046997.8,P
1558598255.2,286046997.5,P
1558598275.1,286046999.1,P
1558598276.0,286046999.1,N
1558598295.8,286046997.8,Y
1558598315.6,286047000.6,P
1558598335.5,286046999.9,N
1558598355.3,286046999.9,N
1558598375.1,286047002.0,N
1558598395.9,286047000.7,N
